Flag for U.S.A. Weather past 2 weeks in Pembroke Pines, Florida, U.S.A.

Now
78 °F

Sunny.


Feels Like: 81 °F
Forecast: 77 / 86 °F
Wind: 7 mph from Southwest

Location: North Perry Airport

Current Time: Jul 31, 2014 at 7:40:36 PM

Latest Report: Jul 31, 2014 at 6:53 PM


Visibility: 10 mi

Pressure: 30.00 "Hg

Humidity: 90%

Dew point: 75 °F

Location of Pembroke PinesLocation

Historic Weather in Pembroke Pines — Graph

°F

Pembroke Pines temperature yesterday

Maximum temperature yesterday: 93 °F (at 1:53 PM)
Minimum temperature yesterday: 77 °F (at 5:53 PM)
Average temperature yesterday: 82 °F

Past Weeks' High & Low Weather Summary

 TemperatureHumidityPressure
High95 °F (Jul 28, 3:53 PM)100% (Jul 21, 2:53 PM)30.13 "Hg (Jul 21, 2:53 PM)
Low73 °F (Jul 17, 1:53 PM)41% (Jul 28, 4:53 PM)29.94 "Hg (Jul 30, 3:53 PM)
Average83 °F78%30.05 "Hg
* Reported Jul 16 5:53 PM — Jul 31 5:53 PM, Pembroke Pines, Weather by CustomWeather, © 2014

Note: Actual official high and low records may vary slightly from our data, if they occured in-between our weather recording intervals... More about our weather records

Advertising

Pembroke Pines weather history for previous 24 hours

 ConditionsComfort  
Time TempWeatherWind HumidityBarometerVisibility
5:53 PM
Jul 31
79 °FPartly sunny.9 mph90%30.01 "Hg10 mi
4:53 PM79 °FThunderstorms. Partly sunny.8 mph88%29.99 "Hg10 mi
3:53 PM81 °FThundershowers. Broken clouds.13 mph77%29.98 "Hg10 mi
2:53 PM82 °FLight rain. Mostly cloudy.13 mph77%29.98 "Hg10 mi
1:53 PM92 °FBroken clouds.5 mph52%29.98 "Hg10 mi
12:53 PM89 °FBroken clouds.7 mph61%30.00 "Hg10 mi
11:53 AM90 °FBroken clouds.9 mph61%30.01 "Hg10 mi
10:53 AM89 °FPassing clouds.10 mph65%30.01 "Hg10 mi
9:53 AM85 °FSunny.5 mph77%30.01 "Hg10 mi
8:53 AM82 °FSunny.3 mph79%30.00 "Hg10 mi
7:53 AM79 °FSunny.No wind90%29.99 "Hg10 mi
6:53 AM78 °FClear.3 mph90%29.98 "Hg10 mi
5:53 AM78 °FClear.No wind87%29.97 "Hg10 mi
4:53 AM78 °FClear.3 mph84%29.96 "Hg10 mi
3:53 AM78 °FClear.3 mph82%29.97 "Hg10 mi
2:53 AM79 °FClear.5 mph82%29.98 "Hg10 mi
1:53 AM79 °FClear.No wind90%29.99 "Hg10 mi
12:53 AM79 °FPassing clouds.No wind94%30.00 "Hg10 mi
11:53 PM
Jul 30
79 °FPassing clouds.No wind94%30.00 "Hg10 mi
10:53 PM79 °FClear.6 mph90%30.00 "Hg10 mi
9:53 PM78 °FClear.No wind90%29.99 "Hg10 mi
8:53 PM78 °FSunny.5 mph90%29.98 "Hg10 mi
7:53 PM77 °FPassing clouds.No wind90%29.99 "Hg10 mi
Weather by CustomWeather, © 2014

See weather overviewHow to use our weather pages